{"data":{"norad_id":57055,"intl_designator":"2023-088H","name":"STARLINK-6237","alt_names":[],"object_type":"PAYLOAD","status":"ACTIVE","operator":null,"country":"US","launch_date":"2023-06-22","launch_site_code":"AFWTR","launch_vehicle":null,"mission":null,"orbit_class":"UNKNOWN","rcs_meters":null,"size_class":null,"mass_kg":null,"dimensions":null,"purposes":["comms"],"wikipedia_slug":null,"has_3d_model":false,"image_url":null,"decayed_at":null,"tle_current":{"epoch":"2026-05-24T23:44:03.331680Z","epoch_age_seconds":76327,"freshness":"FRESH","line1":"1 57055U 23088H   26144.98892745 -.00000573  00000+0 -11319-4 0  9997","line2":"2 57055  43.0047  39.5699 0001286 266.0517  94.0187 15.27568318162001","mean_motion":15.27568318,"eccentricity":0.0001286,"inclination_deg":43.0047,"raan_deg":39.5699,"arg_perigee_deg":266.0517,"mean_anomaly_deg":94.0187,"bstar":-1.1319e-5,"rev_number":16200,"period_min":94.267469613755,"perigee_km":482.20172334273,"apogee_km":483.96642940358,"semimajor_km":6861.2210763732,"source":"CELESTRAK","updated_at":"2026-05-25T13:38:18.209375Z"}}}